DW7955 Weather Reports


time (UTC)temp
F
wind
direction
speed
knots
gust
knots
rain 1hr
in
rain 24hr
in
rain mn
in
humidity
%
barometer
mb
20260506044547 37 55 4.3 8.7 0.00 0.18 0.18 89 1012.8
20260506043044 37 72 4.3 7.0 0.00 0.18 0.18 89 1012.7
20260506041543 37 55 7.0 8.7 0.00 0.18 0.18 88 1012.7
20260506040044 37 36 5.2 8.7 0.00 0.18 0.18 89 1012.6
20260506034541 37 34 2.6 6.1 0.00 0.18 0.18 89 1012.6
20260506033039 37 29 4.3 7.0 0.00 0.18 0.18 88 1012.4
20260506031538 37 40 4.3 7.0 0.00 0.18 0.18 88 1011.9
20260506030054 37 32 5.2 10.4 0.00 0.18 0.18 88 1011.4
20260506024539 37 30 6.1 8.7 0.00 0.18 0.18 88 1010.9
20260506023032 37 42 7.0 10.4 0.00 0.18 0.18 87 1010.3
20260506021531 37 38 7.0 8.7 0.00 0.18 0.18 87 1010.7
20260506020027 37 44 5.2 9.6 0.00 0.18 0.18 87 1010.0
20260506014523 37 40 5.2 12.2 0.00 0.18 0.18 87 1009.5
20260506013020 37 45 6.1 9.6 0.01 0.18 0.18 87 1008.9
20260506011528 38 21 5.2 9.6 0.02 0.18 0.18 86 1009.1
20260506010013 39 1 5.2 10.4 0.07 0.18 0.18 85 1008.3
20260506004524 39 92 9.6 15.6 0.14 0.18 0.18 84 1006.9
20260506003009 39 63 7.8 10.4 0.16 0.17 0.17 84 1007.6
20260506001509 39 82 5.2 10.4 0.16 0.16 0.16 83 1007.8
20260506000006 40 51 0.9 7.8 0.10 0.10 0.10 84 1007.3
20260505234602 40 83 6.1 9.6 0.04 0.04 0.04 81 1007.1
20260505233120 41 86 3.5 7.0 0.01 0.01 0.01 79 1007.3
20260505231554 42 84 6.1 11.3 0.00 0.00 0.00 76 1007.1
20260505230052 43 72 7.8 12.2 0.00 0.00 0.00 72 1006.7
20260505224550 43 91 7.0 9.6 0.00 0.00 0.00 70 1006.6
20260505223051 43 65 7.0 9.6 0.00 0.00 0.00 69 1006.7
20260505221548 43 97 6.1 14.8 0.00 0.00 0.00 69 1006.7
20260505220047 43 71 6.1 11.3 0.00 0.00 0.00 69 1006.6
20260505214547 43 90 7.0 13.0 0.00 0.00 0.00 69 1006.9
20260505213048 43 72 5.2 11.3 0.00 0.00 0.00 70 1006.8
20260505211546 44 54 5.2 9.6 0.00 0.00 0.00 70 1006.6
20260505210045 44 75 6.1 12.2 0.00 0.00 0.00 70 1006.5
20260505204544 44 86 4.3 13.0 0.00 0.00 0.00 69 1006.7
20260505203049 44 47 7.8 13.9 0.00 0.00 0.00 68 1006.5
20260505201546 44 78 9.6 13.9 0.00 0.00 0.00 68 1006.3
20260505200042 44 77 8.7 15.6 0.00 0.00 0.00 69 1006.3
20260505194548 45 53 9.6 13.9 0.00 0.00 0.00 69 1006.3
20260505193101 44 84 9.6 15.6 0.00 0.00 0.00 70 1006.6
20260505191542 44 68 9.6 15.6 0.00 0.00 0.00 71 1006.5
20260505190043 44 53 7.8 15.6 0.00 0.00 0.00 72 1006.6
20260505184540 44 60 8.7 14.8 0.00 0.00 0.00 72 1006.6
20260505183040 44 65 7.8 13.0 0.00 0.00 0.00 72 1006.6
20260505181540 45 86 9.6 13.0 0.00 0.00 0.00 71 1006.7
20260505180043 45 32 7.0 15.6 0.00 0.00 0.00 71 1006.7
20260505174539 44 101 5.2 15.6 0.00 0.00 0.00 69 1007.0
20260505173037 44 84 11.3 15.6 0.00 0.00 0.00 72 1006.8
20260505171541 44 60 7.0 13.0 0.00 0.00 0.00 75 1006.6
20260505170038 44 53 8.7 13.0 0.00 0.00 0.00 76 1006.7
20260505164539 44 45 10.4 15.6 0.00 0.00 0.00 76 1006.7
20260505163040 44 86 7.0 13.9 0.00 0.00 0.00 75 1006.6
20260505161530 44 58 9.6 16.5 0.00 0.00 0.00 75 1006.4
20260505153034 44 55 10.4 16.5 0.00 0.00 0.00 74 1006.1
20260505151527 44 67 11.3 19.1 0.00 0.00 0.00 74 1006.2
20260505130111 47 65 5.2 9.6 0.00 0.00 0.00 71 1004.7
20260505124605 47 34 6.1 11.3 0.00 0.00 0.00 71 1004.5
20260505123113 47 61 7.0 12.2 0.00 0.00 0.00 70 1004.3
20260505121554 47 46 5.2 9.6 0.00 0.00 0.00 71 1004.0
20260505120056 47 59 4.3 8.7 0.00 0.00 0.00 70 1003.8
20260505114551 47 53 3.5 7.8 0.00 0.00 0.00 69 1003.6
20260505113051 47 57 3.5 7.8 0.00 0.00 0.00 68 1003.6
20260505111544 48 49 3.5 6.1 0.00 0.00 0.00 66 1003.1
20260505101536 49 38 3.5 6.1 0.00 0.00 0.00 66 1003.4
20260505100033 49 45 2.6 5.2 0.00 0.00 0.00 65 1003.4
20260505094531 50 45 2.6 5.2 0.00 0.00 0.00 64 1003.2
20260505093030 50 37 1.7 4.3 0.00 0.00 0.00 64 1003.6
20260505091530 50 37 1.7 3.5 0.00 0.00 0.00 64 1003.4
20260505090025 51 9 1.7 4.3 0.00 0.00 0.00 64 1003.3
20260505084535 51 1 0.0 5.2 0.00 0.00 0.00 63 1003.3
20260505083039 52 15 1.7 4.3 0.00 0.00 0.00 62 1003.4
20260505081523 52 27 2.6 4.3 0.00 0.00 0.00 62 1003.4
20260505080033 53 11 1.7 8.7 0.00 0.00 0.00 61 1003.5
20260505074518 53 356 0.0 0.0 0.00 0.00 0.00 59 1003.3
20260505073024 53 32 0.0 3.5 0.00 0.00 0.00 58 1003.4
20260505071510 54 22 3.5 7.8 0.00 0.00 0.00 57 1002.9
20260505070008 54 20 4.3 10.4 0.00 0.00 0.00 56 1002.8
20260505064506 55 29 7.8 13.0 0.00 0.00 0.00 55 1002.1
20260505063004 55 338 7.8 11.3 0.00 0.00 0.00 54 1002.7
20260505061501 55 356 9.6 13.9 0.00 0.00 0.00 54 1002.3
20260505060103 55 1 9.6 15.6 0.00 0.00 0.00 54 1002.5